Regional Weather Roundup
Issued by NWS

Home | Current Version | Previous Version | Graphics & Text | Print | Product List | Glossary On
Versions: 1 2 3 4 5 6 7 8 9 10 11 12 13 14 15 16 17 18 19 20 21 22 23 24 25 26 27 28 29 30 31 32 33 34 35 36 37 38 39 40 41 42 43 44 45 46 47 48 49 50
534
ASUS43 KLSX 171257
RWRMO

WEATHER SUMMARY FOR MISSOURI
NATIONAL WEATHER SERVICE SPRINGFIELD MO
800 AM CDT TUE OCT 17 2017

NOTE: "FAIR" INDICATES FEW OR NO CLOUDS BELOW 12,000 FEET WITH NO
       SIGNIFICANT WEATHER AND/OR OBSTRUCTIONS TO VISIBILITY.
       CURRENT SKY AND/OR WEATHER CONDITIONS ARE NOT AVAILABLE FOR
       CHILLICOTHE AND FARMINGTON.

MOZ001>031-035>038-043-044-053-054-171400-
...NORTHERN AND WESTERN MISSOURI...

CITY           SKY/WX    TMP DP  RH WIND       PRES   REMARKS
KANSAS CTY INT PTCLDY    48  41  76 S12       30.20F
LEE`S SUMMIT   PTCLDY    50  41  71 S12       30.23S
ST JOSEPH      CLEAR     44  42  93 S6        30.19S
CHILLICOTHE      N/A     47  41  80 S6        30.23S

$$
MOZ066>068-077>081-088>096-101>105-171400-
...SOUTHWEST MISSOURI...

CITY           SKY/WX    TMP DP  RH WIND       PRES   REMARKS
SPRINGFIELD    PTCLDY    44  40  85 S3        30.30R
JOPLIN         PTCLDY    48  43  82 S7        30.28R
BRANSON        MOCLDY    45  39  81 CALM      30.33R

$$
MOZ032>034-039>042-045>050-055>058-069>072-171400-
...CENTRAL MISSOURI...

CITY           SKY/WX    TMP DP  RH WIND       PRES   REMARKS
COLUMBIA       NOT AVBL
JEFFERSON CITY PTCLDY    42  38  85 E3        30.30R
ROLLA          PTCLDY    48  39  71 S14       30.31S
SEDALIA        PTCLDY    44  42  93 S7        30.27S
WARRENSBURG    MOCLDY    45  39  81 S6        30.25S

$$
MOZ051-052-059>065-171400-
...EAST CENTRAL MISSOURI...

CITY           SKY/WX    TMP DP  RH WIND       PRES   REMARKS
ST LOUIS INTL  MOCLDY    51  39  63 S9        30.32S

$$
MOZ072>076-082>087-097>100-106>115-171400-
...SOUTH CENTRAL AND SOUTHEAST MISSOURI...

CITY           SKY/WX    TMP DP  RH WIND       PRES   REMARKS
CAPE GIRARDEAU FOG       36  36 100 CALM      30.37S VSB 1/4
POPLAR BLUFF   CLEAR     39  38  96 NW3       30.37R
WEST PLAINS    CLOUDY    42  38  85 CALM      30.35R

$$



USA.gov is the U.S. government's official web portal to all federal, state and local government web resources and services.